Overview Statistics Trail Chart Weather Telemetry Raw packets
 

This is the latest recevied weather packets stored in our database for station/object LU4EGV-13. If no packets are shown the sender has not sent any weather packets the latest 10 day(s).

<< 37 38 39 40 41 42 43 >>
Time Temp. Humidity Pressure Rain* Wind** Luminosity Snow
1788104422 21.11° C 46% 1014.3 hPa 0 mm - - -
1788103809 21.11° C 47% 1014.5 hPa 0 mm - - -
1788103204 21.11° C 50% 1014.5 hPa 0 mm - - -
1788102598 20.56° C 51% 1014.5 hPa 0 mm - - -
1788101992 20.56° C 51% 1014.8 hPa 0 mm - - -
1788101386 20.56° C 51% 1014.9 hPa 0 mm - - -
1788100780 20° C 51% 1014.7 hPa 0 mm - - -
1788100173 19.44° C 53% 1014.7 hPa 0 mm - - -
1788099568 19.44° C 52% 1014.6 hPa 0 mm - - -
1788098962 19.44° C 53% 1014.7 hPa 0 mm - - -
1788098354 18.89° C 57% 1014.8 hPa 0 mm - - -
1788097747 18.33° C 61% 1014.9 hPa 0 mm - - -
1788097160 17.78° C 62% 1015 hPa 0 mm - - -
1788096869 18.33° C 64% 1015.1 hPa 0 mm - - -
1788096574 18.33° C 64% 1015.1 hPa 0 mm - - -
1788095957 17.78° C 69% 1015.3 hPa 0 mm - - -
1788095323 17.78° C 72% 1015.4 hPa 0 mm - - -
1788094718 17.22° C 78% 1015 hPa 0 mm - - -
1788094111 16.67° C 82% 1015.3 hPa 0 mm - - -
1788093506 16.11° C 88% 1015.1 hPa 0 mm - - -
1788092903 15° C 93% 1015.2 hPa 0 mm - - -
1788092294 13.89° C 94% 1015.2 hPa 0 mm - - -
1788091689 12.78° C 94% 1015.1 hPa 0 mm - - -
1788091081 11.11° C 94% 1015 hPa 0 mm - - -
1788090476 10.56° C 94% 1015 hPa 0 mm - - -

* Rain latest hour (hover to see other rain measurements)
** Current wind speed in m/s (hover to see current wind gust speed)